Location: Asheville, NC
(35.6000°N, 82.5500°W)
Time: 06:39:31
(UTC-04:00)

Vanguard 1 - Visible Passes

Search period start: 22 July 2018 00:00
Search period end: 01 August 2018 00:00
Orbit: 650 x 3833 km, 34.2° (Epoch: 21 July)

Date Brightness Start Highest point End Pass type
(mag) Time Alt. Az. Time Alt. Az. Time Alt. Az.
22 Jul 11.6 00:05:35 10° WSW 00:07:46 20° WSW 00:07:46 20° WSW visible
22 Jul 10.3 04:51:23 28° SSW 04:51:35 28° SSW 04:56:52 10° SE visible
22 Jul 10.8 22:04:10 10° SW 22:12:31 37° SSE 22:15:26 24° ESE visible
23 Jul 11.9 00:26:42 10° WSW 00:28:12 17° WSW 00:28:12 17° WSW visible
23 Jul 10.8 05:12:01 20° SSW 05:12:32 20° SSW 05:16:59 10° SSE visible
23 Jul 10.4 22:24:55 10° SW 22:33:31 47° SSE 22:35:46 33° ESE visible
24 Jul 12.1 00:47:52 10° W 00:48:31 13° W 00:48:31 13° W visible
24 Jul 11.3 05:32:43 13° SW 05:33:30 13° SSW 05:36:17 10° S visible
24 Jul 10.1 22:45:57 10° WSW 22:54:31 58° SSE 22:55:59 46° ESE visible
25 Jul 9.8 23:07:08 10° WSW 23:15:29 69° S 23:16:06 64° SE visible
26 Jul 11.2 21:04:12 10° SW 21:15:35 45° SSE 21:22:02 10° E visible
26 Jul 9.8 23:28:26 10° WSW 23:36:09 74° SSW 23:36:09 74° SSW visible
27 Jul 10.9 21:25:10 10° WSW 21:36:40 56° SSE 21:43:00 10° E visible
27 Jul 10.2 23:49:47 10° W 23:56:07 57° WSW 23:56:07 57° WSW visible
28 Jul 10.6 21:46:23 10° WSW 21:57:43 66° SSE 22:03:18 14° E visible
29 Jul 10.8 00:11:08 10° W 00:16:01 39° W 00:16:01 39° W visible
29 Jul 10.4 22:07:47 10° WSW 22:18:45 74° S 22:23:10 21° E visible
30 Jul 11.4 00:32:27 10° W 00:35:53 27° W 00:35:53 27° W visible
30 Jul 10.3 22:29:16 10° W 22:39:48 80° S 22:42:59 32° E visible
31 Jul 11.9 00:53:44 10° W 00:55:41 18° W 00:55:41 18° W visible
31 Jul 10.2 22:50:48 10° W 23:00:50 82° S 23:02:46 49° E visible
